COSMOS 2535 DEB, 44641

Orbit data source: Space-Track

COSMOS 2535 DEB, 44641 is space debris in SSO originally from a launch on Wed, 10 Jul 2019 UTC launched from the Plesetsk Missile And Space Complex (PKMTR). Debris objects in space refer to the collection of defunct objects orbiting the Earth. Examples of debris include non-operational satellites, rocket bodies, and fragments generated from explosions, collisions, or faulty payload assembly.

Loading next visibility...
Identifier
44641, 2019-039M
Orbit
SSO
Country
Flag of CISCIS
Related business
Manufacturer
Unknown
Mission
Spacecraft
Bus & Motor
Unknown
Mass
Unknown
Launch date (UTC)
2019-07-10 (6 years ago)
Launch vehicle
Unknown
Launch site
Plesetsk Missile And Space Complex (PKMTR)
Object type
Payload
Rocket body
Debris
Shape & HBR
Unknown shape, 0.1 m
Radar Cross Section
Small (<0.1 m²)

Expand to show TLE details & history
Last TLE update: 2 days ago

TLE from 2 days ago
0 COSMOS 2535 DEB
1 44641U 19039M   25346.45505016  .00027426  00000-0  11177-2 0  9997
2 44641  97.5785  52.4575 0016359 267.7362  92.2002 15.24312054338609
Epoch: 2025-12-12T10:55Z
TLE epoch observation values (Epoch: 2025-12-12T10:55:16.333Z)
Latitude
-0.00003°
Longitude
167.24302°
Altitude
496.393 km
Speed
7.616 km/s
True Right ascension
03h 29m 49s
True Declination
0° 00' 00"
Sunlit
Object was in full shadow at epoch
Visualization orbit readout
Latitude
Unknown
Longitude
Unknown
Altitude
Unknown
Speed
Unknown
Apparent Right ascension
Unknown
Apparent Declination
Unknown
Sunlit
N/A
Visualization observer readout
Local Sidereal Time
23:32:52
Azimuth
Unknown
Elevation
Unknown
Doppler factor
Unknown
Orbital elements
Apogee altitude
501.055 km
Perigee altitude
478.584 km
Semi-major axis
6,867.957 km
Eccentricity
0.00164
Inclination
97.5785°
RAAN
52.4575°
Arg. of periapsis
267.7362°
True anomaly
92.38751°
Mean anomaly
92.2002°
Eccentric anomaly
92.29386°
Mean motion
3.81331 °/min
Orbital period
94.41 mins
BSTAR
0.0011177
Loading maneuver chart data...
Computing Atmospheric mass density...

Documentation

Showing up to 5 results
|